Location: Unspecified
(47.7670°N, 8.8522°E)
Time: 15:07:41
(UTC+01:00)

ISS - Pass Details

Date: 29 January 2019
Orbit: 403 x 411 km, 51.6° (Epoch: 22 February)

Event Time Altitude Azimuth Distance (km) Brightness Sun altitude
Rises 19:50:46 0° 282° (WNW) 2,337 1.3 -25.3°
Reaches altitude 10° 19:52:56 10° 290° (WNW) 1,477 -0.1 -25.7°
Enters shadow 19:54:29 23° 305° (NW) 925 -1.5 -25.9°
